This is the latest recevied weather packets stored in our database for station/object G0TQM-11. If no packets are shown the sender has not sent any weather packets the latest 10 day(s).
| Time | Temp. | Humidity | Pressure | Rain* | Wind** | Luminosity | Snow |
|---|---|---|---|---|---|---|---|
| 1777845912 | 11.67° C | 54% | 1010.2 hPa | - | - | - | - |
| 1777844702 | 12.22° C | 54% | 1009.9 hPa | - | - | - | - |
| 1777843510 | 12.22° C | 55% | 1009.9 hPa | - | - | - | - |
| 1777842310 | 12.22° C | 55% | 1009.7 hPa | - | - | - | - |
| 1777841106 | 12.78° C | 55% | 1009.7 hPa | - | - | - | - |
| 1777839902 | 12.78° C | 55% | 1009.4 hPa | - | - | - | - |
| 1777838702 | 13.33° C | 54% | 1009.1 hPa | - | - | - | - |
| 1777837501 | 13.89° C | 53% | 1008.9 hPa | - | - | - | - |
| 1777836301 | 14.44° C | 53% | 1008.6 hPa | - | - | - | - |
| 1777835101 | 15° C | 52% | 1008.4 hPa | - | - | - | - |
| 1777833905 | 15° C | 53% | 1008.2 hPa | - | - | - | - |
| 1777832705 | 15.56° C | 51% | 1008.1 hPa | - | - | - | - |
| 1777831501 | 16.11° C | 51% | 1008.1 hPa | - | - | - | - |
| 1777830300 | 16.67° C | 50% | 1007.8 hPa | - | - | - | - |
| 1777829100 | 16.11° C | 51% | 1007.6 hPa | - | - | - | - |
| 1777827900 | 16.67° C | 50% | 1007.7 hPa | - | - | - | - |
| 1777826705 | 16.67° C | 50% | 1007.5 hPa | - | - | - | - |
| 1777825500 | 16.67° C | 49% | 1007.3 hPa | - | - | - | - |
| 1777824300 | 16.67° C | 51% | 1007.5 hPa | - | - | - | - |
| 1777823100 | 17.22° C | 50% | 1007.4 hPa | - | - | - | - |
| 1777821900 | 17.22° C | 49% | 1007.4 hPa | - | - | - | - |
| 1777820709 | 16.67° C | 50% | 1007.4 hPa | - | - | - | - |
| 1777819499 | 16.67° C | 50% | 1007.5 hPa | - | - | - | - |
| 1777818298 | 16.67° C | 51% | 1007.5 hPa | - | - | - | - |
| 1777817099 | 16.11° C | 52% | 1007.5 hPa | - | - | - | - |
* Rain since midnight (hover to see other rain measurements)
** Current wind speed in m/s (hover to see current wind gust speed)